Year,Month,Day,Hour,Minute,Value (Times are PST for temperature in C)
2010,10,20,00,00,6.20
2010,10,20,00,01,6.20
2010,10,20,00,02,6.20
2010,10,20,00,03,6.20
2010,10,20,00,04,6.20
2010,10,20,00,05,6.30
2010,10,20,00,06,6.30
2010,10,20,00,07,6.30
2010,10,20,00,08,6.30
2010,10,20,00,09,6.30
2010,10,20,00,10,6.30
2010,10,20,00,11,6.30
2010,10,20,00,12,6.30
2010,10,20,00,13,6.30
2010,10,20,00,14,6.20
2010,10,20,00,15,6.20
2010,10,20,00,16,6.20
2010,10,20,00,17,6.10
2010,10,20,00,18,6.10
2010,10,20,00,19,6.00
2010,10,20,00,20,6.00
2010,10,20,00,21,6.00
2010,10,20,00,22,6.00
2010,10,20,00,23,6.00
2010,10,20,00,24,6.00
2010,10,20,00,25,5.90
2010,10,20,00,26,5.90
2010,10,20,00,27,5.90
2010,10,20,00,28,5.90
2010,10,20,00,29,5.90
2010,10,20,00,30,5.80
2010,10,20,00,31,5.80
2010,10,20,00,32,5.80
2010,10,20,00,33,5.80
2010,10,20,00,34,5.80
2010,10,20,00,35,5.80
2010,10,20,00,36,5.80
2010,10,20,00,37,5.80
2010,10,20,00,38,5.80
2010,10,20,00,39,5.80
2010,10,20,00,40,5.80
2010,10,20,00,41,5.70
2010,10,20,00,42,5.70
2010,10,20,00,43,5.70
2010,10,20,00,44,5.70
2010,10,20,00,45,5.60
2010,10,20,00,46,5.60
2010,10,20,00,47,5.60
2010,10,20,00,48,5.60
2010,10,20,00,49,5.60
2010,10,20,00,50,5.50
2010,10,20,00,51,5.50
2010,10,20,00,52,5.50
2010,10,20,00,53,5.50
2010,10,20,00,54,5.40
2010,10,20,00,55,5.40
2010,10,20,00,56,5.40
2010,10,20,00,57,5.40
2010,10,20,00,58,5.40
2010,10,20,00,59,5.40
2010,10,20,01,00,5.40
2010,10,20,01,01,5.40
2010,10,20,01,02,5.40
2010,10,20,01,03,5.40
2010,10,20,01,04,5.40
2010,10,20,01,05,5.30
2010,10,20,01,06,5.30
2010,10,20,01,07,5.30
2010,10,20,01,08,5.30
2010,10,20,01,09,5.30
2010,10,20,01,10,5.30
2010,10,20,01,11,5.30
2010,10,20,01,12,5.30
2010,10,20,01,13,5.30
2010,10,20,01,14,5.20
2010,10,20,01,15,5.20
2010,10,20,01,16,5.20
2010,10,20,01,17,5.20
2010,10,20,01,18,5.20
2010,10,20,01,19,5.20
2010,10,20,01,20,5.20
2010,10,20,01,21,5.30
2010,10,20,01,22,5.30
2010,10,20,01,23,5.30
2010,10,20,01,24,5.30
2010,10,20,01,25,5.30
2010,10,20,01,26,5.30
2010,10,20,01,27,5.30
2010,10,20,01,28,5.30
2010,10,20,01,29,5.30
2010,10,20,01,30,5.40
2010,10,20,01,31,5.40
2010,10,20,01,32,5.40
2010,10,20,01,33,5.50
2010,10,20,01,34,5.50
2010,10,20,01,35,5.50
2010,10,20,01,36,5.60
2010,10,20,01,37,5.60
2010,10,20,01,38,5.60
2010,10,20,01,39,5.60
2010,10,20,01,40,5.60
2010,10,20,01,41,5.50
2010,10,20,01,42,5.50
2010,10,20,01,43,5.50
2010,10,20,01,44,5.40
2010,10,20,01,45,5.40
2010,10,20,01,46,5.40
2010,10,20,01,47,5.40
2010,10,20,01,48,5.40
2010,10,20,01,49,5.30
2010,10,20,01,50,5.30
2010,10,20,01,51,5.30
2010,10,20,01,52,5.30
2010,10,20,01,53,5.30
2010,10,20,01,54,5.30
2010,10,20,01,55,5.30
2010,10,20,01,56,5.30
2010,10,20,01,57,5.30
2010,10,20,01,58,5.20
2010,10,20,01,59,5.20
2010,10,20,02,00,5.20
2010,10,20,02,01,5.20
2010,10,20,02,02,5.10
2010,10,20,02,03,5.10
2010,10,20,02,04,5.10
2010,10,20,02,05,5.10
2010,10,20,02,06,5.10
2010,10,20,02,07,5.10
2010,10,20,02,08,5.20
2010,10,20,02,09,5.20
2010,10,20,02,10,5.20
2010,10,20,02,11,5.20
2010,10,20,02,12,5.20
2010,10,20,02,13,5.20
2010,10,20,02,14,5.20
2010,10,20,02,15,5.10
2010,10,20,02,16,5.10
2010,10,20,02,17,5.10
2010,10,20,02,18,5.10
2010,10,20,02,19,5.10
2010,10,20,02,20,5.00
2010,10,20,02,21,5.00
2010,10,20,02,22,5.00
2010,10,20,02,23,4.90
2010,10,20,02,24,4.90
2010,10,20,02,25,4.90
2010,10,20,02,26,4.90
2010,10,20,02,27,4.80
2010,10,20,02,28,4.80
2010,10,20,02,29,4.80
2010,10,20,02,30,4.80
2010,10,20,02,31,4.80
2010,10,20,02,32,4.70
2010,10,20,02,33,4.70
2010,10,20,02,34,4.70
2010,10,20,02,35,4.70
2010,10,20,02,36,4.70
2010,10,20,02,37,4.70
2010,10,20,02,38,4.70
2010,10,20,02,39,4.70
2010,10,20,02,40,4.60
2010,10,20,02,41,4.60
2010,10,20,02,42,4.60
2010,10,20,02,43,4.60
2010,10,20,02,44,4.60
2010,10,20,02,45,4.60
2010,10,20,02,46,4.60
2010,10,20,02,47,4.50
2010,10,20,02,48,4.50
2010,10,20,02,49,4.50
2010,10,20,02,50,4.50
2010,10,20,02,51,4.50
2010,10,20,02,52,4.50
2010,10,20,02,53,4.50
2010,10,20,02,54,4.40
2010,10,20,02,55,4.40
2010,10,20,02,56,4.40
2010,10,20,02,57,4.40
2010,10,20,02,58,4.40
2010,10,20,02,59,4.40
2010,10,20,03,00,4.30
2010,10,20,03,01,4.30
2010,10,20,03,02,4.40
2010,10,20,03,06,4.40
2010,10,20,03,07,4.40
2010,10,20,03,08,4.40
2010,10,20,03,09,4.40
2010,10,20,03,10,4.40
2010,10,20,03,11,4.40
2010,10,20,03,12,4.50
2010,10,20,03,13,4.60
2010,10,20,03,14,4.70
2010,10,20,03,15,4.70
2010,10,20,03,16,4.80
2010,10,20,03,17,4.80
2010,10,20,03,18,4.80
2010,10,20,03,19,4.80
2010,10,20,03,20,4.80
2010,10,20,03,21,4.80
2010,10,20,03,22,4.80
2010,10,20,03,23,4.80
2010,10,20,03,24,4.80
2010,10,20,03,25,4.70
2010,10,20,03,26,4.70
2010,10,20,03,27,4.70
2010,10,20,03,28,4.60
2010,10,20,03,29,4.60
2010,10,20,03,30,4.50
2010,10,20,03,31,4.50
2010,10,20,03,32,4.50
2010,10,20,03,33,4.40
2010,10,20,03,34,4.40
2010,10,20,03,35,4.40
2010,10,20,03,36,4.40
2010,10,20,03,37,4.30
2010,10,20,03,38,4.30
2010,10,20,03,39,4.30
2010,10,20,03,40,4.30
2010,10,20,03,41,4.30
2010,10,20,03,42,4.30
2010,10,20,03,43,4.20
2010,10,20,03,44,4.20
2010,10,20,03,45,4.20
2010,10,20,03,46,4.20
2010,10,20,03,47,4.20
2010,10,20,03,48,4.20
2010,10,20,03,49,4.20
2010,10,20,03,50,4.30
2010,10,20,03,51,4.30
2010,10,20,03,52,4.30
2010,10,20,03,53,4.20
2010,10,20,03,54,4.20
2010,10,20,03,55,4.20
2010,10,20,03,56,4.20
2010,10,20,03,57,4.20
2010,10,20,03,58,4.20
2010,10,20,03,59,4.20
2010,10,20,04,00,4.10
2010,10,20,04,01,4.10
2010,10,20,04,02,4.10
2010,10,20,04,03,4.10
2010,10,20,04,04,4.10
2010,10,20,04,05,4.10
2010,10,20,04,06,4.10
2010,10,20,04,07,4.10
2010,10,20,04,08,4.10
2010,10,20,04,09,4.10
2010,10,20,04,10,4.10
2010,10,20,04,11,4.20
2010,10,20,04,12,4.20
2010,10,20,04,13,4.20
2010,10,20,04,14,4.20
2010,10,20,04,15,4.20
2010,10,20,04,16,4.20
2010,10,20,04,17,4.20
2010,10,20,04,18,4.20
2010,10,20,04,19,4.20
2010,10,20,04,20,4.30
2010,10,20,04,21,4.40
2010,10,20,04,22,4.50
2010,10,20,04,23,4.60
2010,10,20,04,24,4.60
2010,10,20,04,25,4.60
2010,10,20,04,26,4.60
2010,10,20,04,27,4.60
2010,10,20,04,28,4.60
2010,10,20,04,29,4.60
2010,10,20,04,30,4.60
2010,10,20,04,31,4.60
2010,10,20,04,32,4.50
2010,10,20,04,33,4.50
2010,10,20,04,34,4.50
2010,10,20,04,35,4.40
2010,10,20,04,36,4.40
2010,10,20,04,37,4.30
2010,10,20,04,38,4.30
2010,10,20,04,39,4.20
2010,10,20,04,40,4.20
2010,10,20,04,41,4.20
2010,10,20,04,42,4.20
2010,10,20,04,43,4.10
2010,10,20,04,44,4.10
2010,10,20,04,45,4.10
2010,10,20,04,46,4.10
2010,10,20,04,47,4.10
2010,10,20,04,48,4.10
2010,10,20,04,49,4.20
2010,10,20,04,50,4.20
2010,10,20,04,51,4.30
2010,10,20,04,52,4.40
2010,10,20,04,53,4.40
2010,10,20,04,54,4.50
2010,10,20,04,55,4.50
2010,10,20,04,56,4.50
2010,10,20,04,57,4.50
2010,10,20,04,58,4.50
2010,10,20,04,59,4.50
2010,10,20,05,00,4.50
2010,10,20,05,01,4.40
2010,10,20,05,02,4.40
2010,10,20,05,03,4.40
2010,10,20,05,04,4.30
2010,10,20,05,05,4.30
2010,10,20,05,06,4.30
2010,10,20,05,07,4.30
2010,10,20,05,08,4.30
2010,10,20,05,09,4.20
2010,10,20,05,10,4.20
2010,10,20,05,11,4.30
2010,10,20,05,12,4.30
2010,10,20,05,13,4.30
2010,10,20,05,14,4.30
2010,10,20,05,15,4.30
2010,10,20,05,16,4.30
2010,10,20,05,17,4.30
2010,10,20,05,18,4.30
2010,10,20,05,19,4.20
2010,10,20,05,20,4.20
2010,10,20,05,21,4.20
2010,10,20,05,22,4.10
2010,10,20,05,23,4.10
2010,10,20,05,24,4.00
2010,10,20,05,25,4.00
2010,10,20,05,26,3.90
2010,10,20,05,27,3.90
2010,10,20,05,28,3.90
2010,10,20,05,29,3.80
2010,10,20,05,30,3.80
2010,10,20,05,31,3.80
2010,10,20,05,32,3.80
2010,10,20,05,33,3.80
2010,10,20,05,34,3.80
2010,10,20,05,35,3.80
2010,10,20,05,36,3.70
2010,10,20,05,37,3.70
2010,10,20,05,38,3.70
2010,10,20,05,39,3.70
2010,10,20,05,40,3.70
2010,10,20,05,41,3.70
2010,10,20,05,42,3.70
2010,10,20,05,43,3.70
2010,10,20,05,44,3.70
2010,10,20,05,45,3.70
2010,10,20,05,46,3.70
2010,10,20,05,47,3.70
2010,10,20,05,48,3.70
2010,10,20,05,49,3.70
2010,10,20,05,50,3.70
2010,10,20,05,51,3.70
2010,10,20,05,52,3.70
2010,10,20,05,53,3.70
2010,10,20,05,54,3.70
2010,10,20,05,55,3.70
2010,10,20,05,56,3.70
2010,10,20,05,57,3.70
2010,10,20,05,58,3.70
2010,10,20,05,59,3.70
2010,10,20,06,00,3.70
2010,10,20,06,01,3.70
2010,10,20,06,02,3.70
2010,10,20,06,03,3.60
2010,10,20,06,04,3.60
2010,10,20,06,05,3.60
2010,10,20,06,06,3.60
2010,10,20,06,07,3.60
2010,10,20,06,08,3.60
2010,10,20,06,09,3.60
2010,10,20,06,10,3.50
2010,10,20,06,11,3.50
2010,10,20,06,12,3.50
2010,10,20,06,13,3.50
2010,10,20,06,14,3.50
2010,10,20,06,15,3.50
2010,10,20,06,16,3.50
2010,10,20,06,17,3.50
2010,10,20,06,18,3.50
2010,10,20,06,19,3.50
2010,10,20,06,20,3.60
2010,10,20,06,21,3.60
2010,10,20,06,22,3.60
2010,10,20,06,23,3.70
2010,10,20,06,24,3.80
2010,10,20,06,25,3.80
2010,10,20,06,26,3.90
2010,10,20,06,27,3.90
2010,10,20,06,28,3.90
2010,10,20,06,29,3.90
2010,10,20,06,30,3.90
2010,10,20,06,31,3.90
2010,10,20,06,32,3.90
2010,10,20,06,33,3.90
2010,10,20,06,34,3.80
2010,10,20,06,35,3.80
2010,10,20,06,36,3.80
2010,10,20,06,37,3.80
2010,10,20,06,38,3.70
2010,10,20,06,39,3.70
2010,10,20,06,40,3.70
2010,10,20,06,41,3.70
2010,10,20,06,42,3.70
2010,10,20,06,43,3.70
2010,10,20,06,44,3.70
2010,10,20,06,45,3.70
2010,10,20,06,46,3.70
2010,10,20,06,47,3.70
2010,10,20,06,48,3.70
2010,10,20,06,49,3.70
2010,10,20,06,50,3.70
2010,10,20,06,51,3.60
2010,10,20,06,52,3.60
2010,10,20,06,53,3.60
2010,10,20,06,54,3.60
2010,10,20,06,55,3.60
2010,10,20,06,56,3.60
2010,10,20,06,57,3.60
2010,10,20,06,58,3.60
2010,10,20,06,59,3.60
2010,10,20,07,00,3.50
2010,10,20,07,01,3.60
2010,10,20,07,02,3.60
2010,10,20,07,03,3.60
2010,10,20,07,04,3.70
2010,10,20,07,05,3.70
2010,10,20,07,06,3.70
2010,10,20,07,07,3.70
2010,10,20,07,08,3.80
2010,10,20,07,09,3.80
2010,10,20,07,10,3.80
2010,10,20,07,11,3.80
2010,10,20,07,12,3.80
2010,10,20,07,13,3.80
2010,10,20,07,14,3.80
2010,10,20,07,15,3.80
2010,10,20,07,16,3.80
2010,10,20,07,17,3.80
2010,10,20,07,18,3.70
2010,10,20,07,19,3.70
2010,10,20,07,20,3.70
2010,10,20,07,21,3.70
2010,10,20,07,22,3.70
2010,10,20,07,23,3.60
2010,10,20,07,24,3.60
2010,10,20,07,25,3.60
2010,10,20,07,26,3.60
2010,10,20,07,27,3.50
2010,10,20,07,28,3.50
2010,10,20,07,29,3.50
2010,10,20,07,30,3.50
2010,10,20,07,31,3.50
2010,10,20,07,32,3.40
2010,10,20,07,33,3.40
2010,10,20,07,34,3.40
2010,10,20,07,35,3.40
2010,10,20,07,36,3.40
2010,10,20,07,37,3.40
2010,10,20,07,38,3.40
2010,10,20,07,39,3.40
2010,10,20,07,40,3.40
2010,10,20,07,41,3.40
2010,10,20,07,42,3.40
2010,10,20,07,43,3.40
2010,10,20,07,44,3.40
2010,10,20,07,45,3.40
2010,10,20,07,46,3.40
2010,10,20,07,47,3.40
2010,10,20,07,48,3.40
2010,10,20,07,49,3.50
2010,10,20,07,50,3.50
2010,10,20,07,51,3.50
2010,10,20,07,52,3.60
2010,10,20,07,53,3.60
2010,10,20,07,54,3.60
2010,10,20,07,55,3.60
2010,10,20,07,56,3.60
2010,10,20,07,57,3.60
2010,10,20,07,58,3.60
2010,10,20,07,59,3.60
2010,10,20,08,00,3.60
2010,10,20,08,01,3.60
2010,10,20,08,02,3.50
2010,10,20,08,03,3.50
2010,10,20,08,04,3.50
2010,10,20,08,05,3.50
2010,10,20,08,06,3.50
2010,10,20,08,07,3.50
2010,10,20,08,08,3.50
2010,10,20,08,09,3.50
2010,10,20,08,10,3.50
2010,10,20,08,11,3.50
2010,10,20,08,12,3.50
2010,10,20,08,13,3.50
2010,10,20,08,14,3.50
2010,10,20,08,15,3.50
2010,10,20,08,16,3.60
2010,10,20,08,17,3.60
2010,10,20,08,18,3.60
2010,10,20,08,19,3.60
2010,10,20,08,20,3.60
2010,10,20,08,21,3.70
2010,10,20,08,22,3.70
2010,10,20,08,23,3.70
2010,10,20,08,24,3.70
2010,10,20,08,25,3.80
2010,10,20,08,26,3.80
2010,10,20,08,27,3.90
2010,10,20,08,28,4.00
2010,10,20,08,29,4.10
2010,10,20,08,30,4.20
2010,10,20,08,31,4.20
2010,10,20,08,32,4.30
2010,10,20,08,33,4.30
2010,10,20,08,34,4.40
2010,10,20,08,35,4.40
2010,10,20,08,36,4.50
2010,10,20,08,37,4.50
2010,10,20,08,38,4.60
2010,10,20,08,39,4.60
2010,10,20,08,40,4.70
2010,10,20,08,41,4.70
2010,10,20,08,42,4.70
2010,10,20,08,43,4.80
2010,10,20,08,44,4.90
2010,10,20,08,45,5.00
2010,10,20,08,46,5.00
2010,10,20,08,47,5.10
2010,10,20,08,48,5.20
2010,10,20,08,49,5.20
2010,10,20,08,50,5.30
2010,10,20,08,51,5.40
2010,10,20,08,52,5.50
2010,10,20,08,53,5.60
2010,10,20,08,54,5.70
2010,10,20,08,55,5.80
2010,10,20,08,56,5.90
2010,10,20,08,57,6.00
2010,10,20,08,58,6.10
2010,10,20,08,59,6.20
2010,10,20,09,00,6.30
2010,10,20,09,01,6.40
2010,10,20,09,02,6.50
2010,10,20,09,03,6.60
2010,10,20,09,04,6.70
2010,10,20,09,05,6.90
2010,10,20,09,06,7.00
2010,10,20,09,07,7.10
2010,10,20,09,08,7.20
2010,10,20,09,09,7.30
2010,10,20,09,10,7.50
2010,10,20,09,11,7.60
2010,10,20,09,12,7.70
2010,10,20,09,13,7.80
2010,10,20,09,14,7.90
2010,10,20,09,15,8.00
2010,10,20,09,16,8.10
2010,10,20,09,17,8.10
2010,10,20,09,18,8.20
2010,10,20,09,19,8.20
2010,10,20,09,20,8.30
2010,10,20,09,21,8.30
2010,10,20,09,22,8.40
2010,10,20,09,23,8.40
2010,10,20,09,24,8.50
2010,10,20,09,25,8.60
2010,10,20,09,26,8.60
2010,10,20,09,27,8.70
2010,10,20,09,28,8.70
2010,10,20,09,29,8.80
2010,10,20,09,30,8.90
2010,10,20,09,31,8.90
2010,10,20,09,32,8.90
2010,10,20,09,33,8.90
2010,10,20,09,34,9.00
2010,10,20,09,35,9.00
2010,10,20,09,36,9.10
2010,10,20,09,37,9.10
2010,10,20,09,38,9.10
2010,10,20,09,39,9.20
2010,10,20,09,40,9.20
2010,10,20,09,41,9.20
2010,10,20,09,42,9.20
2010,10,20,09,43,9.20
2010,10,20,09,44,9.20
2010,10,20,09,45,9.30
2010,10,20,09,46,9.30
2010,10,20,09,47,9.30
2010,10,20,09,48,9.30
2010,10,20,09,49,9.40
2010,10,20,09,50,9.40
2010,10,20,09,51,9.50
2010,10,20,09,52,9.50
2010,10,20,09,53,9.60
2010,10,20,09,54,9.60
2010,10,20,09,55,9.70
2010,10,20,09,56,9.70
2010,10,20,09,57,9.70
2010,10,20,09,58,9.80
2010,10,20,09,59,9.80
2010,10,20,10,00,9.80
2010,10,20,10,01,9.80
2010,10,20,10,02,9.90
2010,10,20,10,03,9.90
2010,10,20,10,04,9.90
2010,10,20,10,05,9.90
2010,10,20,10,06,10.00
2010,10,20,10,07,10.00
2010,10,20,10,08,10.00
2010,10,20,10,09,10.00
2010,10,20,10,10,10.00
2010,10,20,10,11,10.00
2010,10,20,10,12,10.00
2010,10,20,10,13,10.00
2010,10,20,10,14,10.00
2010,10,20,10,15,10.00
2010,10,20,10,16,9.90
2010,10,20,10,17,10.00
2010,10,20,10,18,10.00
2010,10,20,10,19,10.00
2010,10,20,10,20,10.00
2010,10,20,10,21,10.10
2010,10,20,10,22,10.20
2010,10,20,10,23,10.20
2010,10,20,10,24,10.20
2010,10,20,10,25,10.20
2010,10,20,10,26,10.20
2010,10,20,10,27,10.20
2010,10,20,10,28,10.20
2010,10,20,10,29,10.30
2010,10,20,10,30,10.30
2010,10,20,10,31,10.30
2010,10,20,10,32,10.40
2010,10,20,10,33,10.40
2010,10,20,10,34,10.40
2010,10,20,10,35,10.40
2010,10,20,10,36,10.40
2010,10,20,10,37,10.40
2010,10,20,10,38,10.40
2010,10,20,10,39,10.50
2010,10,20,10,40,10.50
2010,10,20,10,41,10.60
2010,10,20,10,42,10.60
2010,10,20,10,43,10.60
2010,10,20,10,44,10.70
2010,10,20,10,45,10.80
2010,10,20,10,46,10.80
2010,10,20,10,47,10.80
2010,10,20,10,48,10.90
2010,10,20,10,49,10.90
2010,10,20,10,50,10.90
2010,10,20,10,51,11.00
2010,10,20,10,52,11.10
2010,10,20,10,53,11.10
2010,10,20,10,54,11.20
2010,10,20,10,55,11.20
2010,10,20,10,56,11.20
2010,10,20,10,57,11.20
2010,10,20,10,58,11.20
2010,10,20,10,59,11.20
2010,10,20,11,00,11.20
2010,10,20,11,01,11.20
2010,10,20,11,02,11.20
2010,10,20,11,03,11.20
2010,10,20,11,04,11.20
2010,10,20,11,05,11.20
2010,10,20,11,06,11.20
2010,10,20,11,07,11.30
2010,10,20,11,08,11.30
2010,10,20,11,09,11.30
2010,10,20,11,10,11.30
2010,10,20,11,11,11.40
2010,10,20,11,12,11.40
2010,10,20,11,13,11.50
2010,10,20,11,14,11.60
2010,10,20,11,15,11.70
2010,10,20,11,16,11.70
2010,10,20,11,17,11.70
2010,10,20,11,18,11.70
2010,10,20,11,19,11.80
2010,10,20,11,20,11.80
2010,10,20,11,21,11.80
2010,10,20,11,22,11.80
2010,10,20,11,23,11.90
2010,10,20,11,24,11.90
2010,10,20,11,25,11.90
2010,10,20,11,26,11.90
2010,10,20,11,27,11.90
2010,10,20,11,28,11.90
2010,10,20,11,29,11.90
2010,10,20,11,30,12.00
2010,10,20,11,31,12.00
2010,10,20,11,32,12.00
2010,10,20,11,33,12.00
2010,10,20,11,34,12.00
2010,10,20,11,35,12.00
2010,10,20,11,36,12.10
2010,10,20,11,37,12.10
2010,10,20,11,38,12.10
2010,10,20,11,39,12.10
2010,10,20,11,40,12.20
2010,10,20,11,41,12.20
2010,10,20,11,42,12.30
2010,10,20,11,43,12.30
2010,10,20,11,44,12.40
2010,10,20,11,45,12.40
2010,10,20,11,46,12.30
2010,10,20,11,47,12.30
2010,10,20,11,48,12.40
2010,10,20,11,49,12.40
2010,10,20,11,50,12.40
2010,10,20,11,51,12.40
2010,10,20,11,52,12.40
2010,10,20,11,53,12.40
2010,10,20,11,54,12.30
2010,10,20,11,55,12.40
2010,10,20,11,56,12.30
2010,10,20,11,57,12.20
2010,10,20,11,58,12.10
2010,10,20,11,59,11.90
2010,10,20,12,00,11.70
2010,10,20,12,01,11.60
2010,10,20,12,02,11.40
2010,10,20,12,03,11.30
2010,10,20,12,04,11.20
2010,10,20,12,05,11.20
2010,10,20,12,06,11.10
2010,10,20,12,07,11.10
2010,10,20,12,08,11.00
2010,10,20,12,09,11.00
2010,10,20,12,10,11.00
2010,10,20,12,11,11.00
2010,10,20,12,12,11.00
2010,10,20,12,13,10.90
2010,10,20,12,14,10.80
2010,10,20,12,15,10.70
2010,10,20,12,16,10.60
2010,10,20,12,17,10.50
2010,10,20,12,18,10.50
2010,10,20,12,19,10.50
2010,10,20,12,20,10.40
2010,10,20,12,21,10.40
2010,10,20,12,22,10.30
2010,10,20,12,23,10.30
2010,10,20,12,24,10.30
2010,10,20,12,25,10.30
2010,10,20,12,26,10.40
2010,10,20,12,27,10.40
2010,10,20,12,28,10.40
2010,10,20,12,29,10.30
2010,10,20,12,30,10.40
2010,10,20,12,31,10.40
2010,10,20,12,32,10.30
2010,10,20,12,33,10.40
2010,10,20,12,34,10.40
2010,10,20,12,35,10.40
2010,10,20,12,36,10.50
2010,10,20,12,37,10.60
2010,10,20,12,38,10.60
2010,10,20,12,39,10.70
2010,10,20,12,40,10.70
2010,10,20,12,41,10.70
2010,10,20,12,42,10.70
2010,10,20,12,43,10.60
2010,10,20,12,44,10.60
2010,10,20,12,45,10.50
2010,10,20,12,46,10.50
2010,10,20,12,47,10.40
2010,10,20,12,48,10.30
2010,10,20,12,49,10.30
2010,10,20,12,50,10.30
2010,10,20,12,51,10.30
2010,10,20,12,52,10.30
2010,10,20,12,53,10.30
2010,10,20,12,54,10.30
2010,10,20,12,55,10.30
2010,10,20,12,56,10.40
2010,10,20,12,57,10.40
2010,10,20,12,58,10.40
2010,10,20,12,59,10.40
2010,10,20,13,00,10.40
2010,10,20,13,01,10.40
2010,10,20,13,02,10.50
2010,10,20,13,03,10.50
2010,10,20,13,04,10.60
2010,10,20,13,05,10.60
2010,10,20,13,06,10.70
2010,10,20,13,07,10.70
2010,10,20,13,08,10.70
2010,10,20,13,09,10.80
2010,10,20,13,10,10.80
2010,10,20,13,11,10.80
2010,10,20,13,12,10.80
2010,10,20,13,13,10.80
2010,10,20,13,14,10.90
2010,10,20,13,15,10.90
2010,10,20,13,16,10.90
2010,10,20,13,17,10.80
2010,10,20,13,18,10.80
2010,10,20,13,19,10.80
2010,10,20,13,20,10.80
2010,10,20,13,21,10.80
2010,10,20,13,22,10.70
2010,10,20,13,23,10.70
2010,10,20,13,24,10.70
2010,10,20,13,25,10.70
2010,10,20,13,26,10.70
2010,10,20,13,27,10.70
2010,10,20,13,28,10.80
2010,10,20,13,29,10.80
2010,10,20,13,30,10.80
2010,10,20,13,31,10.80
2010,10,20,13,32,10.90
2010,10,20,13,33,11.00
2010,10,20,13,34,11.10
2010,10,20,13,35,11.10
2010,10,20,13,36,11.10
2010,10,20,13,37,11.20
2010,10,20,13,38,11.20
2010,10,20,13,39,11.20
2010,10,20,13,40,11.30
2010,10,20,13,41,11.40
2010,10,20,13,42,11.40
2010,10,20,13,43,11.40
2010,10,20,13,44,11.40
2010,10,20,13,45,11.40
2010,10,20,13,46,11.40
2010,10,20,13,47,11.40
2010,10,20,13,48,11.40
2010,10,20,13,49,11.30
2010,10,20,13,50,11.30
2010,10,20,13,51,11.30
2010,10,20,13,52,11.30
2010,10,20,13,53,11.30
2010,10,20,13,54,11.30
2010,10,20,13,55,11.30
2010,10,20,13,56,11.30
2010,10,20,13,57,11.30
2010,10,20,13,58,11.30
2010,10,20,13,59,11.30
2010,10,20,14,00,11.30
2010,10,20,14,01,11.40
2010,10,20,14,02,11.50
2010,10,20,14,03,11.50
2010,10,20,14,04,11.60
2010,10,20,14,05,11.60
2010,10,20,14,06,11.70
2010,10,20,14,07,11.80
2010,10,20,14,08,11.90
2010,10,20,14,09,12.00
2010,10,20,14,10,12.10
2010,10,20,14,11,12.20
2010,10,20,14,12,12.20
2010,10,20,14,13,12.20
2010,10,20,14,14,12.20
2010,10,20,14,15,12.20
2010,10,20,14,16,12.20
2010,10,20,14,17,12.20
2010,10,20,14,18,12.30
2010,10,20,14,19,12.30
2010,10,20,14,20,12.30
2010,10,20,14,21,12.30
2010,10,20,14,22,12.40
2010,10,20,14,23,12.40
2010,10,20,14,24,12.40
2010,10,20,14,25,12.50
2010,10,20,14,26,12.50
2010,10,20,14,27,12.60
2010,10,20,14,28,12.70
2010,10,20,14,29,12.70
2010,10,20,14,30,12.80
2010,10,20,14,31,12.80
2010,10,20,14,32,12.80
2010,10,20,14,33,12.80
2010,10,20,14,34,12.90
2010,10,20,14,35,12.90
2010,10,20,14,36,12.90
2010,10,20,14,37,12.90
2010,10,20,14,38,12.90
2010,10,20,14,39,12.90
2010,10,20,14,40,12.80
2010,10,20,14,41,12.90
2010,10,20,14,42,12.90
2010,10,20,14,43,12.90
2010,10,20,14,44,12.90
2010,10,20,14,45,13.00
2010,10,20,14,46,13.00
2010,10,20,14,47,13.10
2010,10,20,14,48,13.10
2010,10,20,14,49,13.20
2010,10,20,14,50,13.20
2010,10,20,14,51,13.30
2010,10,20,14,52,13.30
2010,10,20,14,53,13.40
2010,10,20,14,54,13.50
2010,10,20,14,55,13.50
2010,10,20,14,56,13.60
2010,10,20,14,57,13.60
2010,10,20,14,58,13.70
2010,10,20,14,59,13.70
2010,10,20,15,00,13.70
2010,10,20,15,01,13.70
2010,10,20,15,02,13.70
2010,10,20,15,03,13.70
2010,10,20,15,04,13.70
2010,10,20,15,05,13.70
2010,10,20,15,06,13.70
2010,10,20,15,07,13.70
2010,10,20,15,08,13.80
2010,10,20,15,09,13.80
2010,10,20,15,10,13.80
2010,10,20,15,11,13.80
2010,10,20,15,12,13.80
2010,10,20,15,13,13.80
2010,10,20,15,14,13.80
2010,10,20,15,15,13.80
2010,10,20,15,16,13.80
2010,10,20,15,17,13.80
2010,10,20,15,18,13.80
2010,10,20,15,19,13.80
2010,10,20,15,20,13.80
2010,10,20,15,21,13.80
2010,10,20,15,22,13.80
2010,10,20,15,23,13.80
2010,10,20,15,24,13.90
2010,10,20,15,25,13.90
2010,10,20,15,26,13.90
2010,10,20,15,27,13.90
2010,10,20,15,28,14.00
2010,10,20,15,29,14.00
2010,10,20,15,30,14.00
2010,10,20,15,31,14.00
2010,10,20,15,32,14.00
2010,10,20,15,33,14.00
2010,10,20,15,34,13.90
2010,10,20,15,35,13.90
2010,10,20,15,36,13.90
2010,10,20,15,37,13.90
2010,10,20,15,38,13.90
2010,10,20,15,39,13.80
2010,10,20,15,40,13.80
2010,10,20,15,41,13.80
2010,10,20,15,42,13.90
2010,10,20,15,43,13.90
2010,10,20,15,44,13.90
2010,10,20,15,45,14.00
2010,10,20,15,46,14.00
2010,10,20,15,47,14.10
2010,10,20,15,48,14.10
2010,10,20,15,49,14.10
2010,10,20,15,50,14.10
2010,10,20,15,51,14.10
2010,10,20,15,52,14.10
2010,10,20,15,53,14.10
2010,10,20,15,54,14.10
2010,10,20,15,55,14.10
2010,10,20,15,56,14.10
2010,10,20,15,57,14.10
2010,10,20,15,58,14.00
2010,10,20,15,59,14.00
2010,10,20,16,00,14.00
2010,10,20,16,01,13.90
2010,10,20,16,02,13.80
2010,10,20,16,03,13.80
2010,10,20,16,04,13.70
2010,10,20,16,05,13.70
2010,10,20,16,06,13.70
2010,10,20,16,07,13.70
2010,10,20,16,08,13.70
2010,10,20,16,09,13.80
2010,10,20,16,10,13.80
2010,10,20,16,11,13.80
2010,10,20,16,12,13.80
2010,10,20,16,13,13.70
2010,10,20,16,14,13.70
2010,10,20,16,15,13.70
2010,10,20,16,16,13.70
2010,10,20,16,17,13.70
2010,10,20,16,18,13.70
2010,10,20,16,19,13.70
2010,10,20,16,20,13.70
2010,10,20,16,21,13.70
2010,10,20,16,22,13.70
2010,10,20,16,23,13.80
2010,10,20,16,24,13.80
2010,10,20,16,25,13.80
2010,10,20,16,26,13.80
2010,10,20,16,27,13.80
2010,10,20,16,28,13.80
2010,10,20,16,29,13.80
2010,10,20,16,30,13.70
2010,10,20,16,31,13.70
2010,10,20,16,32,13.70
2010,10,20,16,33,13.60
2010,10,20,16,34,13.60
2010,10,20,16,35,13.50
2010,10,20,16,36,13.50
2010,10,20,16,37,13.50
2010,10,20,16,38,13.50
2010,10,20,16,39,13.50
2010,10,20,16,40,13.40
2010,10,20,16,41,13.40
2010,10,20,16,42,13.40
2010,10,20,16,43,13.40
2010,10,20,16,44,13.40
2010,10,20,16,45,13.40
2010,10,20,16,46,13.40
2010,10,20,16,47,13.40
2010,10,20,16,48,13.40
2010,10,20,16,49,13.40
2010,10,20,16,50,13.30
2010,10,20,16,51,13.30
2010,10,20,16,52,13.20
2010,10,20,16,53,13.20
2010,10,20,16,54,13.20
2010,10,20,16,55,13.20
2010,10,20,16,56,13.10
2010,10,20,16,57,13.10
2010,10,20,16,58,13.10
2010,10,20,16,59,13.20
2010,10,20,17,00,13.10
2010,10,20,17,01,13.10
2010,10,20,17,02,13.10
2010,10,20,17,03,13.10
2010,10,20,17,04,13.10
2010,10,20,17,05,13.20
2010,10,20,17,06,13.20
2010,10,20,17,07,13.10
2010,10,20,17,08,13.10
2010,10,20,17,09,13.10
2010,10,20,17,10,13.00
2010,10,20,17,11,13.00
2010,10,20,17,12,12.90
2010,10,20,17,13,12.90
2010,10,20,17,14,12.90
2010,10,20,17,15,12.90
2010,10,20,17,16,12.90
2010,10,20,17,17,12.80
2010,10,20,17,18,12.80
2010,10,20,17,19,12.80
2010,10,20,17,20,12.80
2010,10,20,17,21,12.80
2010,10,20,17,22,12.80
2010,10,20,17,23,12.80
2010,10,20,17,24,12.80
2010,10,20,17,25,12.80
2010,10,20,17,26,12.80
2010,10,20,17,27,12.80
2010,10,20,17,28,12.80
2010,10,20,17,29,12.80
2010,10,20,17,30,12.80
2010,10,20,17,31,12.90
2010,10,20,17,32,12.90
2010,10,20,17,33,12.90
2010,10,20,17,34,13.00
2010,10,20,17,35,13.00
2010,10,20,17,36,13.00
2010,10,20,17,37,13.10
2010,10,20,17,38,13.10
2010,10,20,17,39,13.10
2010,10,20,17,40,13.20
2010,10,20,17,41,13.20
2010,10,20,17,42,13.20
2010,10,20,17,43,13.20
2010,10,20,17,44,13.20
2010,10,20,17,45,13.20
2010,10,20,17,46,13.10
2010,10,20,17,47,13.10
2010,10,20,17,48,13.00